| time (UTC) | temp F | wind direction | speed MPH | gust MPH | rain 1hr in | rain 24hr in | rain mn in | humidity % | barometer mb |
| 20260906002805 | 65 | 118 | 1.0 | 7.0 | 0.00 | 0.00 | 0.00 | 69 | 1008.4 |
| 20260906001304 | 66 | 61 | 0.0 | 2.0 | 0.00 | 0.00 | 0.00 | 68 | 1008.4 |
| 20260906000804 | 66 | 63 | 1.0 | 5.0 | 0.00 | 0.00 | 0.00 | 67 | 1008.4 |
| 20260906000304 | 66 | 80 | 1.0 | 7.0 | 0.00 | 0.00 | 0.00 | 67 | 1008.4 |
| 20260905235805 | 66 | 32 | 0.0 | 5.0 | 0.00 | 0.00 | 0.00 | 67 | 1008.4 |
| 20260905234804 | 67 | 84 | 0.0 | 1.0 | 0.00 | 0.00 | 0.00 | 67 | 1008.4 |
| 20260905234304 | 67 | 51 | 0.0 | 3.0 | 0.00 | 0.00 | 0.00 | 67 | 1008.4 |
| 20260905233804 | 67 | 44 | 0.0 | 3.0 | 0.00 | 0.00 | 0.00 | 66 | 1008.4 |
| 20260905233304 | 67 | 351 | 0.0 | 0.0 | 0.00 | 0.00 | 0.00 | 66 | 1008.4 |
| 20260905232306 | 67 | 342 | 0.0 | 0.0 | 0.00 | 0.00 | 0.00 | 67 | 1008.4 |
| 20260905231805 | 67 | 346 | 0.0 | 0.0 | 0.00 | 0.00 | 0.00 | 66 | 1008.4 |
| 20260905231305 | 68 | 346 | 0.0 | 0.0 | 0.00 | 0.00 | 0.00 | 67 | 1008.4 |
| 20260905230804 | 68 | 346 | 0.0 | 0.0 | 0.00 | 0.00 | 0.00 | 66 | 1008.4 |
| 20260905225306 | 68 | 346 | 0.0 | 0.0 | 0.00 | 0.00 | 0.00 | 66 | 1007.9 |
| 20260905223805 | 67 | 340 | 0.0 | 0.0 | 0.00 | 0.00 | 0.00 | 67 | 1007.9 |
| 20260905222306 | 68 | 340 | 0.0 | 0.0 | 0.00 | 0.00 | 0.00 | 67 | 1007.9 |
| 20260905221804 | 68 | 340 | 0.0 | 0.0 | 0.00 | 0.00 | 0.00 | 67 | 1007.9 |
| 20260905220805 | 69 | 340 | 0.0 | 0.0 | 0.00 | 0.00 | 0.00 | 66 | 1007.9 |
| 20260905214304 | 70 | 64 | 0.0 | 0.0 | 0.00 | 0.00 | 0.00 | 61 | 1007.7 |
| 20260905213305 | 70 | 64 | 0.0 | 0.0 | 0.00 | 0.00 | 0.00 | 59 | 1007.7 |
| 20260905212306 | 69 | 40 | 0.0 | 0.0 | 0.00 | 0.00 | 0.00 | 61 | 1007.5 |
| 20260905211805 | 69 | 30 | 0.0 | 0.0 | 0.00 | 0.00 | 0.00 | 62 | 1007.5 |
| 20260905205805 | 69 | 19 | 0.0 | 1.0 | 0.00 | 0.00 | 0.00 | 60 | 1007.3 |
| 20260905203804 | 70 | 57 | 0.0 | 0.0 | 0.00 | 0.00 | 0.00 | 64 | 1007.3 |
| 20260905202804 | 70 | 56 | 0.0 | 0.0 | 0.00 | 0.00 | 0.00 | 61 | 1007.3 |
| 20260905202306 | 70 | 55 | 0.0 | 0.0 | 0.00 | 0.00 | 0.00 | 61 | 1007.3 |
| 20260905200304 | 70 | 52 | 0.0 | 0.0 | 0.00 | 0.00 | 0.00 | 60 | 1007.3 |
| 20260905195804 | 70 | 52 | 0.0 | 2.0 | 0.00 | 0.00 | 0.00 | 60 | 1007.3 |
| 20260905195306 | 70 | 42 | 0.0 | 1.0 | 0.00 | 0.00 | 0.00 | 58 | 1007.3 |
| 20260905194804 | 70 | 50 | 0.0 | 2.0 | 0.00 | 0.00 | 0.00 | 60 | 1007.3 |
| 20260905193305 | 71 | 67 | 0.0 | 6.0 | 0.00 | 0.00 | 0.00 | 57 | 1007.3 |
| 20260905192306 | 71 | 38 | 0.0 | 0.0 | 0.00 | 0.00 | 0.00 | 55 | 1007.2 |
| 20260905190305 | 70 | 61 | 1.0 | 3.0 | 0.00 | 0.00 | 0.00 | 56 | 1007.2 |
| 20260905185804 | 70 | 63 | 1.0 | 6.0 | 0.00 | 0.00 | 0.00 | 56 | 1007.2 |
| 20260905184305 | 71 | 33 | 0.0 | 3.0 | 0.00 | 0.00 | 0.00 | 57 | 1007.2 |
| 20260905183805 | 71 | 336 | 0.0 | 0.0 | 0.00 | 0.00 | 0.00 | 56 | 1007.3 |
| 20260905183305 | 71 | 325 | 0.0 | 3.0 | 0.00 | 0.00 | 0.00 | 56 | 1007.3 |
| 20260905182804 | 71 | 39 | 0.0 | 2.0 | 0.00 | 0.00 | 0.00 | 57 | 1007.3 |
| 20260905181304 | 71 | 19 | 0.0 | 3.0 | 0.00 | 0.00 | 0.00 | 58 | 1007.3 |
| 20260905175804 | 71 | 20 | 0.0 | 10.0 | 0.00 | 0.00 | 0.00 | 58 | 1007.3 |
| 20260905175306 | 71 | 73 | 0.0 | 3.0 | 0.00 | 0.00 | 0.00 | 58 | 1007.3 |
| 20260905174805 | 71 | 109 | 0.0 | 2.0 | 0.00 | 0.00 | 0.00 | 56 | 1007.3 |
| 20260905173804 | 71 | 347 | 0.0 | 3.0 | 0.00 | 0.00 | 0.00 | 57 | 1007.3 |
| 20260905172805 | 71 | 159 | 0.0 | 3.0 | 0.00 | 0.00 | 0.00 | 57 | 1007.3 |
| 20260905172305 | 71 | 355 | 0.0 | 6.0 | 0.00 | 0.00 | 0.00 | 57 | 1007.3 |
| 20260905171305 | 71 | 97 | 0.0 | 3.0 | 0.00 | 0.00 | 0.00 | 56 | 1007.3 |
| 20260905170804 | 71 | 64 | 0.0 | 3.0 | 0.00 | 0.00 | 0.00 | 58 | 1007.3 |
| 20260905170305 | 71 | 262 | 0.0 | 2.0 | 0.00 | 0.00 | 0.00 | 57 | 1007.3 |
| 20260905165805 | 71 | 5 | 0.0 | 5.0 | 0.00 | 0.00 | 0.00 | 59 | 1007.3 |
| 20260905165306 | 72 | 7 | 0.0 | 1.0 | 0.00 | 0.00 | 0.00 | 57 | 1007.3 |
| 20260905164804 | 72 | 14 | 0.0 | 3.0 | 0.00 | 0.00 | 0.00 | 56 | 1007.3 |
| 20260905164304 | 72 | 32 | 0.0 | 3.0 | 0.00 | 0.00 | 0.00 | 55 | 1007.3 |
| 20260905163304 | 72 | 16 | 0.0 | 1.0 | 0.00 | 0.00 | 0.00 | 55 | 1007.3 |
| 20260905162805 | 72 | 47 | 1.0 | 6.0 | 0.00 | 0.00 | 0.00 | 55 | 1007.3 |
| 20260905162306 | 72 | 54 | 1.0 | 7.0 | 0.00 | 0.00 | 0.00 | 55 | 1007.3 |
| 20260905161804 | 72 | 86 | 0.0 | 2.0 | 0.00 | 0.00 | 0.00 | 55 | 1007.4 |
| 20260905161305 | 72 | 273 | 1.0 | 6.0 | 0.00 | 0.00 | 0.00 | 54 | 1007.4 |
| 20260905160305 | 72 | 267 | 0.0 | 3.0 | 0.00 | 0.00 | 0.00 | 56 | 1007.4 |
| 20260905155306 | 72 | 288 | 0.0 | 5.0 | 0.00 | 0.00 | 0.00 | 54 | 1007.4 |
| 20260905154305 | 71 | 194 | 1.0 | 6.0 | 0.00 | 0.00 | 0.00 | 59 | 1007.4 |
| 20260905153804 | 70 | 247 | 1.0 | 6.0 | 0.00 | 0.00 | 0.00 | 60 | 1007.5 |
| 20260905152805 | 70 | 33 | 0.0 | 0.0 | 0.00 | 0.00 | 0.00 | 62 | 1007.5 |
| 20260905152306 | 70 | 247 | 0.0 | 1.0 | 0.00 | 0.00 | 0.00 | 60 | 1007.5 |
| 20260905151805 | 70 | 247 | 0.0 | 5.0 | 0.00 | 0.00 | 0.00 | 62 | 1007.5 |
| 20260905151304 | 70 | 161 | 0.0 | 0.0 | 0.00 | 0.00 | 0.00 | 61 | 1007.5 |
| 20260905150804 | 70 | 134 | 0.0 | 0.0 | 0.00 | 0.00 | 0.00 | 60 | 1007.5 |
| 20260905150305 | 70 | 103 | 0.0 | 0.0 | 0.00 | 0.00 | 0.00 | 62 | 1007.5 |
| 20260905145805 | 70 | 103 | 0.0 | 0.0 | 0.00 | 0.00 | 0.00 | 62 | 1007.5 |
| 20260905142804 | 69 | 105 | 1.0 | 5.0 | 0.00 | 0.00 | 0.00 | 62 | 1007.7 |
| 20260905141804 | 68 | 209 | 0.0 | 3.0 | 0.00 | 0.00 | 0.00 | 66 | 1007.7 |
| 20260905141304 | 69 | 281 | 0.0 | 1.0 | 0.00 | 0.00 | 0.00 | 64 | 1007.7 |
| 20260905134304 | 68 | 51 | 0.0 | 1.0 | 0.00 | 0.00 | 0.00 | 65 | 1007.5 |
| 20260905133805 | 68 | 51 | 0.0 | 0.0 | 0.00 | 0.00 | 0.00 | 69 | 1007.5 |
| 20260905133304 | 68 | 51 | 0.0 | 0.0 | 0.00 | 0.00 | 0.00 | 69 | 1007.5 |
| 20260905132804 | 67 | 51 | 0.0 | 0.0 | 0.00 | 0.00 | 0.00 | 72 | 1007.5 |
| 20260905131304 | 64 | 49 | 0.0 | 1.0 | 0.00 | 0.00 | 0.00 | 77 | 1007.5 |
| 20260905130805 | 63 | 49 | 0.0 | 0.0 | 0.00 | 0.00 | 0.00 | 79 | 1007.5 |
| 20260905130304 | 63 | 50 | 1.0 | 3.0 | 0.00 | 0.00 | 0.00 | 82 | 1007.2 |
| 20260905124804 | 61 | 67 | 0.0 | 0.0 | 0.00 | 0.00 | 0.00 | 84 | 1007.2 |
| 20260905124304 | 61 | 67 | 0.0 | 0.0 | 0.00 | 0.00 | 0.00 | 84 | 1007.2 |
| 20260905123804 | 60 | 67 | 0.0 | 0.0 | 0.00 | 0.00 | 0.00 | 85 | 1007.2 |
| 20260905122805 | 60 | 67 | 0.0 | 0.0 | 0.00 | 0.00 | 0.00 | 85 | 1007.2 |
| 20260905122306 | 59 | 67 | 0.0 | 0.0 | 0.00 | 0.00 | 0.00 | 85 | 1007.2 |
| 20260905121304 | 59 | 67 | 0.0 | 0.0 | 0.00 | 0.00 | 0.00 | 85 | 1007.2 |
| 20260905120304 | 59 | 67 | 0.0 | 0.0 | 0.00 | 0.00 | 0.00 | 85 | 1007.2 |
| 20260905115306 | 58 | 67 | 0.0 | 0.0 | 0.00 | 0.00 | 0.00 | 85 | 1007.2 |
| 20260905114305 | 58 | 67 | 0.0 | 0.0 | 0.00 | 0.00 | 0.00 | 85 | 1007.2 |
| 20260905113805 | 58 | 67 | 0.0 | 0.0 | 0.00 | 0.00 | 0.00 | 85 | 1007.2 |
| 20260905113304 | 58 | 67 | 0.0 | 0.0 | 0.00 | 0.00 | 0.00 | 85 | 1007.2 |
| 20260905112306 | 58 | 67 | 0.0 | 0.0 | 0.00 | 0.00 | 0.00 | 85 | 1007.1 |
| 20260905111805 | 58 | 67 | 0.0 | 0.0 | 0.00 | 0.00 | 0.00 | 85 | 1007.1 |
| 20260905110805 | 57 | 67 | 0.0 | 0.0 | 0.00 | 0.00 | 0.00 | 85 | 1006.8 |
| 20260905110305 | 57 | 67 | 0.0 | 0.0 | 0.00 | 0.00 | 0.00 | 85 | 1006.8 |
| 20260905105306 | 57 | 67 | 0.0 | 0.0 | 0.00 | 0.00 | 0.00 | 85 | 1006.8 |
| 20260905104805 | 57 | 67 | 0.0 | 0.0 | 0.00 | 0.00 | 0.00 | 85 | 1006.5 |
| 20260905102306 | 57 | 67 | 0.0 | 0.0 | 0.00 | 0.00 | 0.00 | 84 | 1006.5 |
| 20260905100304 | 57 | 67 | 0.0 | 0.0 | 0.00 | 0.00 | 0.00 | 84 | 1006.5 |
| 20260905095804 | 57 | 67 | 0.0 | 0.0 | 0.00 | 0.00 | 0.00 | 83 | 1006.5 |
| 20260905095306 | 57 | 67 | 0.0 | 0.0 | 0.00 | 0.00 | 0.00 | 83 | 1006.5 |
| 20260905093305 | 57 | 67 | 0.0 | 0.0 | 0.00 | 0.00 | 0.00 | 83 | 1006.3 |
| 20260905092804 | 57 | 67 | 0.0 | 0.0 | 0.00 | 0.00 | 0.00 | 83 | 1006.3 |
| 20260905092306 | 57 | 67 | 0.0 | 0.0 | 0.00 | 0.00 | 0.00 | 83 | 1006.3 |
| 20260905091805 | 57 | 67 | 0.0 | 0.0 | 0.00 | 0.00 | 0.00 | 82 | 1006.3 |
| 20260905085804 | 58 | 67 | 0.0 | 0.0 | 0.00 | 0.00 | 0.00 | 82 | 1006.3 |
| 20260905085306 | 58 | 67 | 0.0 | 0.0 | 0.00 | 0.00 | 0.00 | 82 | 1006.2 |
| 20260905084804 | 58 | 67 | 0.0 | 0.0 | 0.00 | 0.00 | 0.00 | 82 | 1006.2 |
| 20260905084305 | 58 | 67 | 0.0 | 0.0 | 0.00 | 0.00 | 0.00 | 82 | 1006.2 |
| 20260905083805 | 58 | 67 | 0.0 | 0.0 | 0.00 | 0.00 | 0.00 | 82 | 1006.2 |
| 20260905082804 | 58 | 67 | 0.0 | 0.0 | 0.00 | 0.00 | 0.00 | 81 | 1006.2 |
| 20260905081804 | 59 | 67 | 0.0 | 0.0 | 0.00 | 0.00 | 0.00 | 81 | 1006.2 |
| 20260905081304 | 59 | 67 | 0.0 | 0.0 | 0.00 | 0.00 | 0.00 | 81 | 1006.2 |
| 20260905080304 | 59 | 67 | 0.0 | 0.0 | 0.00 | 0.00 | 0.00 | 81 | 1006.2 |
| 20260905071805 | 60 | 67 | 0.0 | 0.0 | 0.00 | 0.00 | 0.00 | 80 | 1006.5 |
| 20260905070304 | 60 | 67 | 0.0 | 0.0 | 0.00 | 0.00 | 0.00 | 80 | 1006.5 |
| 20260905065804 | 60 | 67 | 0.0 | 0.0 | 0.00 | 0.00 | 0.00 | 80 | 1006.5 |
| 20260905064304 | 61 | 67 | 0.0 | 0.0 | 0.00 | 0.00 | 0.00 | 79 | 1006.5 |
| 20260905063804 | 61 | 67 | 0.0 | 0.0 | 0.00 | 0.00 | 0.00 | 79 | 1006.5 |
| 20260905062306 | 61 | 67 | 0.0 | 0.0 | 0.00 | 0.00 | 0.00 | 79 | 1006.5 |
| 20260905061804 | 61 | 67 | 0.0 | 0.0 | 0.00 | 0.00 | 0.00 | 78 | 1006.5 |
| 20260905060305 | 61 | 67 | 0.0 | 0.0 | 0.00 | 0.00 | 0.00 | 78 | 1006.5 |
| 20260905054805 | 62 | 67 | 0.0 | 0.0 | 0.00 | 0.00 | 0.00 | 77 | 1006.5 |
| 20260905054304 | 62 | 67 | 0.0 | 0.0 | 0.00 | 0.00 | 0.00 | 76 | 1006.6 |
| 20260905053305 | 62 | 67 | 0.0 | 0.0 | 0.00 | 0.00 | 0.00 | 75 | 1006.6 |
| 20260905052804 | 62 | 67 | 0.0 | 0.0 | 0.00 | 0.00 | 0.00 | 75 | 1006.6 |
| 20260905051305 | 63 | 67 | 0.0 | 0.0 | 0.00 | 0.00 | 0.00 | 74 | 1006.6 |
| 20260905050805 | 63 | 67 | 0.0 | 0.0 | 0.00 | 0.00 | 0.00 | 73 | 1006.8 |
| 20260905050304 | 63 | 67 | 0.0 | 0.0 | 0.00 | 0.00 | 0.00 | 73 | 1006.8 |
| 20260905044304 | 64 | 67 | 0.0 | 0.0 | 0.00 | 0.00 | 0.00 | 71 | 1006.8 |
| 20260905043804 | 64 | 67 | 0.0 | 0.0 | 0.00 | 0.00 | 0.00 | 71 | 1006.8 |
| 20260905042307 | 65 | 67 | 0.0 | 0.0 | 0.00 | 0.00 | 0.00 | 71 | 1006.8 |
| 20260905035306 | 65 | 67 | 0.0 | 0.0 | 0.00 | 0.00 | 0.00 | 70 | 1006.8 |
| 20260905034804 | 65 | 67 | 0.0 | 0.0 | 0.00 | 0.00 | 0.00 | 71 | 1006.8 |
| 20260905033805 | 65 | 67 | 0.0 | 0.0 | 0.00 | 0.00 | 0.00 | 69 | 1006.8 |
| 20260905031804 | 66 | 67 | 0.0 | 0.0 | 0.00 | 0.00 | 0.00 | 70 | 1006.8 |
| 20260905030305 | 66 | 67 | 0.0 | 0.0 | 0.00 | 0.00 | 0.00 | 70 | 1006.8 |
| 20260905024804 | 66 | 67 | 0.0 | 0.0 | 0.00 | 0.00 | 0.00 | 71 | 1007.3 |
| 20260905023305 | 66 | 67 | 0.0 | 0.0 | 0.00 | 0.00 | 0.00 | 70 | 1007.3 |
| 20260905021805 | 66 | 67 | 0.0 | 0.0 | 0.00 | 0.00 | 0.00 | 70 | 1007.3 |
| 20260905021305 | 66 | 67 | 0.0 | 0.0 | 0.00 | 0.00 | 0.00 | 70 | 1007.3 |
| 20260905020805 | 66 | 67 | 0.0 | 0.0 | 0.00 | 0.00 | 0.00 | 70 | 1007.3 |
| 20260905020304 | 67 | 67 | 0.0 | 0.0 | 0.00 | 0.00 | 0.00 | 71 | 1007.3 |
| 20260905015306 | 67 | 67 | 0.0 | 0.0 | 0.00 | 0.00 | 0.00 | 72 | 1007.3 |
| 20260905014804 | 67 | 72 | 0.0 | 2.0 | 0.00 | 0.00 | 0.00 | 72 | 1007.3 |
| 20260905014304 | 67 | 72 | 0.0 | 0.0 | 0.00 | 0.00 | 0.00 | 71 | 1007.3 |
| 20260905010305 | 67 | 17 | 0.0 | 2.0 | 0.00 | 0.00 | 0.00 | 71 | 1007.2 |
| 20260905005805 | 67 | 26 | 0.0 | 0.0 | 0.00 | 0.00 | 0.00 | 70 | 1007.2 |
| 20260905004304 | 67 | 26 | 0.0 | 0.0 | 0.00 | 0.01 | 0.00 | 70 | 1007.2 |